iso_date,epoch_date,Year,Hour,Min,DOY,POS_DOY,Lat,Lon,BP,Ts,Ta,has_bp,has_ts,has_ta,BuoyID,Buoy_Type,Buoy_Owner,Logistics,Hemisphere
2014-08-13T00:00:00Z,1407888000,2014,0,0,225.0,225.0,77.4034,-146.1816,-999.00,-999.00,-999.0,no,no,no,90080,ITP,WHOI,Araon,North
2014-08-13T01:00:28Z,1407891629,2014,1,0,225.042,225.042,77.4016,-146.1962,-999.00,-999.00,-999.0,no,no,no,90080,ITP,WHOI,Araon,North
2014-08-13T01:59:31Z,1407895171,2014,1,59,225.083,225.083,77.4021,-146.2122,-999.00,-999.00,-999.0,no,no,no,90080,ITP,WHOI,Araon,North
2014-08-13T03:00:00Z,1407898800,2014,3,0,225.125,225.125,77.4026,-146.2175,-999.00,-999.00,-999.0,no,no,no,90080,ITP,WHOI,Araon,North
2014-08-13T04:00:28Z,1407902429,2014,4,0,225.167,225.167,77.4031,-146.2186,-999.00,-999.00,-999.0,no,no,no,90080,ITP,WHOI,Araon,North
2014-08-13T04:59:31Z,1407905971,2014,4,59,225.208,225.208,77.4036,-146.2196,-999.00,-999.00,-999.0,no,no,no,90080,ITP,WHOI,Araon,North
2014-08-13T06:00:00Z,1407909600,2014,6,0,225.25,225.25,77.4018,-146.2164,-999.00,-999.00,-999.0,no,no,no,90080,ITP,WHOI,Araon,North
2014-08-13T07:00:28Z,1407913229,2014,7,0,225.292,225.292,77.4019,-146.2132,-999.00,-999.00,-999.0,no,no,no,90080,ITP,WHOI,Araon,North
2014-08-13T07:59:31Z,1407916771,2014,7,59,225.333,225.333,77.4132,-146.21,-999.00,-999.00,-999.0,no,no,no,90080,ITP,WHOI,Araon,North
2014-08-13T09:00:00Z,1407920400,2014,9,0,225.375,225.375,77.412,-146.2068,-999.00,-999.00,-999.0,no,no,no,90080,ITP,WHOI,Araon,North
2014-08-13T10:00:28Z,1407924029,2014,10,0,225.417,225.417,77.3979,-146.197,-999.00,-999.00,-999.0,no,no,no,90080,ITP,WHOI,Araon,North
2014-08-13T10:59:31Z,1407927571,2014,10,59,225.458,225.458,77.3946,-146.1908,-999.00,-999.00,-999.0,no,no,no,90080,ITP,WHOI,Araon,North
2014-08-13T12:00:00Z,1407931200,2014,12,0,225.5,225.5,77.3912,-146.1881,-999.00,-999.00,-999.0,no,no,no,90080,ITP,WHOI,Araon,North
2014-08-13T13:00:28Z,1407934829,2014,13,0,225.542,225.542,77.3879,-146.1886,-999.00,-999.00,-999.0,no,no,no,90080,ITP,WHOI,Araon,North
2014-08-13T13:59:31Z,1407938371,2014,13,59,225.583,225.583,77.3852,-146.1903,-999.00,-999.00,-999.0,no,no,no,90080,ITP,WHOI,Araon,North
2014-08-13T15:00:00Z,1407942000,2014,15,0,225.625,225.625,77.3831,-146.1916,-999.00,-999.00,-999.0,no,no,no,90080,ITP,WHOI,Araon,North
2014-08-13T16:00:28Z,1407945629,2014,16,0,225.667,225.667,77.3819,-146.1872,-999.00,-999.00,-999.0,no,no,no,90080,ITP,WHOI,Araon,North
2014-08-13T16:59:31Z,1407949171,2014,16,59,225.708,225.708,77.3808,-146.1828,-999.00,-999.00,-999.0,no,no,no,90080,ITP,WHOI,Araon,North
2014-08-13T18:00:00Z,1407952800,2014,18,0,225.75,225.75,77.379,-146.1756,-999.00,-999.00,-999.0,no,no,no,90080,ITP,WHOI,Araon,North
2014-08-13T19:00:28Z,1407956429,2014,19,0,225.792,225.792,77.3767,-146.1651,-999.00,-999.00,-999.0,no,no,no,90080,ITP,WHOI,Araon,North
2014-08-13T19:59:31Z,1407959971,2014,19,59,225.833,225.833,77.3738,-146.1553,-999.00,-999.00,-999.0,no,no,no,90080,ITP,WHOI,Araon,North
2014-08-13T21:00:00Z,1407963600,2014,21,0,225.875,225.875,77.3704,-146.1471,-999.00,-999.00,-999.0,no,no,no,90080,ITP,WHOI,Araon,North
2014-08-13T22:00:28Z,1407967229,2014,22,0,225.917,225.917,77.3667,-146.1431,-999.00,-999.00,-999.0,no,no,no,90080,ITP,WHOI,Araon,North
2014-08-13T22:59:31Z,1407970771,2014,22,59,225.958,225.958,77.3631,-146.1425,-999.00,-999.00,-999.0,no,no,no,90080,ITP,WHOI,Araon,North
2014-08-14T00:00:00Z,1407974400,2014,0,0,226.0,226.0,77.3594,-146.1459,-999.00,-999.00,-999.0,no,no,no,90080,ITP,WHOI,Araon,North
2014-08-14T01:00:28Z,1407978029,2014,1,0,226.042,226.042,77.3564,-146.1532,-999.00,-999.00,-999.0,no,no,no,90080,ITP,WHOI,Araon,North
2014-08-14T01:59:31Z,1407981571,2014,1,59,226.083,226.083,77.3534,-146.1622,-999.00,-999.00,-999.0,no,no,no,90080,ITP,WHOI,Araon,North
2014-08-14T03:00:00Z,1407985200,2014,3,0,226.125,226.125,77.3508,-146.1725,-999.00,-999.00,-999.0,no,no,no,90080,ITP,WHOI,Araon,North
2014-08-14T04:19:12Z,1407989952,2014,4,19,226.18,226.18,77.3473,-146.1855,-999.00,-999.00,-999.0,no,no,no,90080,ITP,WHOI,Araon,North
2014-08-14T04:59:31Z,1407992371,2014,4,59,226.208,226.208,77.3459,-146.1913,-999.00,-999.00,-999.0,no,no,no,90080,ITP,WHOI,Araon,North
2014-08-14T06:00:00Z,1407996000,2014,6,0,226.25,226.25,77.3438,-146.1984,-999.00,-999.00,-999.0,no,no,no,90080,ITP,WHOI,Araon,North
2014-08-14T07:00:28Z,1407999629,2014,7,0,226.292,226.292,77.3418,-146.2039,-999.00,-999.00,-999.0,no,no,no,90080,ITP,WHOI,Araon,North
2014-08-14T07:59:31Z,1408003171,2014,7,59,226.333,226.333,77.3397,-146.2086,-999.00,-999.00,-999.0,no,no,no,90080,ITP,WHOI,Araon,North
2014-08-14T09:00:00Z,1408006800,2014,9,0,226.375,226.375,77.3375,-146.2129,-999.00,-999.00,-999.0,no,no,no,90080,ITP,WHOI,Araon,North
2014-08-14T10:00:28Z,1408010429,2014,10,0,226.417,226.417,77.3355,-146.2172,-999.00,-999.00,-999.0,no,no,no,90080,ITP,WHOI,Araon,North
2014-08-14T10:59:31Z,1408013971,2014,10,59,226.458,226.458,77.3336,-146.2216,-999.00,-999.00,-999.0,no,no,no,90080,ITP,WHOI,Araon,North
2014-08-14T12:00:00Z,1408017600,2014,12,0,226.5,226.5,77.3318,-146.2259,-999.00,-999.00,-999.0,no,no,no,90080,ITP,WHOI,Araon,North
2014-08-14T13:00:28Z,1408021229,2014,13,0,226.542,226.542,77.3307,-146.2295,-999.00,-999.00,-999.0,no,no,no,90080,ITP,WHOI,Araon,North
2014-08-14T13:59:31Z,1408024771,2014,13,59,226.583,226.583,77.33,-146.2314,-999.00,-999.00,-999.0,no,no,no,90080,ITP,WHOI,Araon,North
2014-08-14T15:00:00Z,1408028400,2014,15,0,226.625,226.625,77.3293,-146.2306,-999.00,-999.00,-999.0,no,no,no,90080,ITP,WHOI,Araon,North
2014-08-14T16:00:28Z,1408032029,2014,16,0,226.667,226.667,77.3283,-146.227,-999.00,-999.00,-999.0,no,no,no,90080,ITP,WHOI,Araon,North
2014-08-14T16:59:31Z,1408035571,2014,16,59,226.708,226.708,77.3267,-146.2221,-999.00,-999.00,-999.0,no,no,no,90080,ITP,WHOI,Araon,North
2014-08-14T18:00:00Z,1408039200,2014,18,0,226.75,226.75,77.3245,-146.2158,-999.00,-999.00,-999.0,no,no,no,90080,ITP,WHOI,Araon,North
2014-08-14T19:00:28Z,1408042829,2014,19,0,226.792,226.792,77.3219,-146.2095,-999.00,-999.00,-999.0,no,no,no,90080,ITP,WHOI,Araon,North
2014-08-14T19:59:31Z,1408046371,2014,19,59,226.833,226.833,77.3189,-146.2062,-999.00,-999.00,-999.0,no,no,no,90080,ITP,WHOI,Araon,North
2014-08-14T21:00:00Z,1408050000,2014,21,0,226.875,226.875,77.3159,-146.2028,-999.00,-999.00,-999.0,no,no,no,90080,ITP,WHOI,Araon,North
2014-08-14T22:00:28Z,1408053629,2014,22,0,226.917,226.917,77.313,-146.1995,-999.00,-999.00,-999.0,no,no,no,90080,ITP,WHOI,Araon,North
2014-08-14T22:59:31Z,1408057171,2014,22,59,226.958,226.958,77.3103,-146.1993,-999.00,-999.00,-999.0,no,no,no,90080,ITP,WHOI,Araon,North
2014-08-15T00:00:00Z,1408060800,2014,0,0,227.0,227.0,77.308,-146.2021,-999.00,-999.00,-999.0,no,no,no,90080,ITP,WHOI,Araon,North
2014-08-15T01:00:28Z,1408064429,2014,1,0,227.042,227.042,77.3063,-146.2025,-999.00,-999.00,-999.0,no,no,no,90080,ITP,WHOI,Araon,North
2014-08-15T01:59:31Z,1408067971,2014,1,59,227.083,227.083,77.3049,-146.2028,-999.00,-999.00,-999.0,no,no,no,90080,ITP,WHOI,Araon,North
2014-08-15T03:00:00Z,1408071600,2014,3,0,227.125,227.125,77.304,-146.2042,-999.00,-999.00,-999.0,no,no,no,90080,ITP,WHOI,Araon,North
2014-08-15T04:00:28Z,1408075229,2014,4,0,227.167,227.167,77.3033,-146.2047,-999.00,-999.00,-999.0,no,no,no,90080,ITP,WHOI,Araon,North
2014-08-15T04:59:31Z,1408078771,2014,4,59,227.208,227.208,77.3028,-146.2048,-999.00,-999.00,-999.0,no,no,no,90080,ITP,WHOI,Araon,North
2014-08-15T06:00:00Z,1408082400,2014,6,0,227.25,227.25,77.3024,-146.2042,-999.00,-999.00,-999.0,no,no,no,90080,ITP,WHOI,Araon,North
2014-08-15T07:00:28Z,1408086029,2014,7,0,227.292,227.292,77.3021,-146.2027,-999.00,-999.00,-999.0,no,no,no,90080,ITP,WHOI,Araon,North
2014-08-15T07:59:31Z,1408089571,2014,7,59,227.333,227.333,77.3024,-146.2013,-999.00,-999.00,-999.0,no,no,no,90080,ITP,WHOI,Araon,North
2014-08-15T09:00:00Z,1408093200,2014,9,0,227.375,227.375,77.3026,-146.1999,-999.00,-999.00,-999.0,no,no,no,90080,ITP,WHOI,Araon,North
2014-08-15T10:00:28Z,1408096829,2014,10,0,227.417,227.417,77.3,-146.1992,-999.00,-999.00,-999.0,no,no,no,90080,ITP,WHOI,Araon,North
2014-08-15T10:59:31Z,1408100371,2014,10,59,227.458,227.458,77.2992,-146.1992,-999.00,-999.00,-999.0,no,no,no,90080,ITP,WHOI,Araon,North
2014-08-15T12:00:00Z,1408104000,2014,12,0,227.5,227.5,77.2987,-146.1993,-999.00,-999.00,-999.0,no,no,no,90080,ITP,WHOI,Araon,North
2014-08-15T13:00:28Z,1408107629,2014,13,0,227.542,227.542,77.2983,-146.1995,-999.00,-999.00,-999.0,no,no,no,90080,ITP,WHOI,Araon,North
2014-08-15T13:59:31Z,1408111171,2014,13,59,227.583,227.583,77.298,-146.1999,-999.00,-999.00,-999.0,no,no,no,90080,ITP,WHOI,Araon,North
2014-08-15T15:00:00Z,1408114800,2014,15,0,227.625,227.625,77.2978,-146.2017,-999.00,-999.00,-999.0,no,no,no,90080,ITP,WHOI,Araon,North
2014-08-15T16:00:28Z,1408118429,2014,16,0,227.667,227.667,77.2977,-146.2036,-999.00,-999.00,-999.0,no,no,no,90080,ITP,WHOI,Araon,North
2014-08-15T16:59:31Z,1408121971,2014,16,59,227.708,227.708,77.2974,-146.2027,-999.00,-999.00,-999.0,no,no,no,90080,ITP,WHOI,Araon,North
2014-08-15T18:00:00Z,1408125600,2014,18,0,227.75,227.75,77.2971,-146.205,-999.00,-999.00,-999.0,no,no,no,90080,ITP,WHOI,Araon,North
2014-08-15T19:00:28Z,1408129229,2014,19,0,227.792,227.792,77.2968,-146.2078,-999.00,-999.00,-999.0,no,no,no,90080,ITP,WHOI,Araon,North
2014-08-15T19:59:31Z,1408132771,2014,19,59,227.833,227.833,77.2963,-146.2116,-999.00,-999.00,-999.0,no,no,no,90080,ITP,WHOI,Araon,North
2014-08-15T21:00:00Z,1408136400,2014,21,0,227.875,227.875,77.2961,-146.216,-999.00,-999.00,-999.0,no,no,no,90080,ITP,WHOI,Araon,North
2014-08-15T22:59:31Z,1408143571,2014,22,59,227.958,227.958,77.2961,-146.2226,-999.00,-999.00,-999.0,no,no,no,90080,ITP,WHOI,Araon,North
2014-08-16T00:00:00Z,1408147200,2014,0,0,228.0,228.0,77.2963,-146.224,-999.00,-999.00,-999.0,no,no,no,90080,ITP,WHOI,Araon,North
2014-08-16T01:00:28Z,1408150829,2014,1,0,228.042,228.042,77.2965,-146.2244,-999.00,-999.00,-999.0,no,no,no,90080,ITP,WHOI,Araon,North
2014-08-16T01:59:31Z,1408154371,2014,1,59,228.083,228.083,77.2964,-146.2288,-999.00,-999.00,-999.0,no,no,no,90080,ITP,WHOI,Araon,North
2014-08-16T03:00:00Z,1408158000,2014,3,0,228.125,228.125,77.2962,-146.2331,-999.00,-999.00,-999.0,no,no,no,90080,ITP,WHOI,Araon,North
2014-08-16T04:17:45Z,1408162666,2014,4,18,228.179,228.179,77.2959,-146.2434,-999.00,-999.00,-999.0,no,no,no,90080,ITP,WHOI,Araon,North
2014-08-16T04:59:31Z,1408165171,2014,4,59,228.208,228.208,77.2964,-146.2489,-999.00,-999.00,-999.0,no,no,no,90080,ITP,WHOI,Araon,North
2014-08-16T06:00:00Z,1408168800,2014,6,0,228.25,228.25,77.2976,-146.2568,-999.00,-999.00,-999.0,no,no,no,90080,ITP,WHOI,Araon,North
2014-08-16T07:00:28Z,1408172429,2014,7,0,228.292,228.292,77.2996,-146.2647,-999.00,-999.00,-999.0,no,no,no,90080,ITP,WHOI,Araon,North
2014-08-16T07:59:31Z,1408175971,2014,7,59,228.333,228.333,77.3022,-146.2726,-999.00,-999.00,-999.0,no,no,no,90080,ITP,WHOI,Araon,North
2014-08-16T09:00:00Z,1408179600,2014,9,0,228.375,228.375,77.3047,-146.2805,-999.00,-999.00,-999.0,no,no,no,90080,ITP,WHOI,Araon,North
2014-08-16T10:00:28Z,1408183229,2014,10,0,228.417,228.417,77.3069,-146.2884,-999.00,-999.00,-999.0,no,no,no,90080,ITP,WHOI,Araon,North
2014-08-16T10:59:31Z,1408186771,2014,10,59,228.458,228.458,77.3085,-146.2952,-999.00,-999.00,-999.0,no,no,no,90080,ITP,WHOI,Araon,North
2014-08-16T12:00:00Z,1408190400,2014,12,0,228.5,228.5,77.3096,-146.2998,-999.00,-999.00,-999.0,no,no,no,90080,ITP,WHOI,Araon,North
2014-08-16T13:00:28Z,1408194029,2014,13,0,228.542,228.542,77.3106,-146.3028,-999.00,-999.00,-999.0,no,no,no,90080,ITP,WHOI,Araon,North
2014-08-16T13:59:31Z,1408197571,2014,13,59,228.583,228.583,77.3116,-146.3048,-999.00,-999.00,-999.0,no,no,no,90080,ITP,WHOI,Araon,North
2014-08-16T15:00:00Z,1408201200,2014,15,0,228.625,228.625,77.3127,-146.3073,-999.00,-999.00,-999.0,no,no,no,90080,ITP,WHOI,Araon,North
2014-08-16T16:00:28Z,1408204829,2014,16,0,228.667,228.667,77.3141,-146.3118,-999.00,-999.00,-999.0,no,no,no,90080,ITP,WHOI,Araon,North
2014-08-16T16:59:31Z,1408208371,2014,16,59,228.708,228.708,77.3157,-146.3203,-999.00,-999.00,-999.0,no,no,no,90080,ITP,WHOI,Araon,North
2014-08-16T18:00:00Z,1408212000,2014,18,0,228.75,228.75,77.3177,-146.3287,-999.00,-999.00,-999.0,no,no,no,90080,ITP,WHOI,Araon,North
2014-08-16T19:00:28Z,1408215629,2014,19,0,228.792,228.792,77.3197,-146.3372,-999.00,-999.00,-999.0,no,no,no,90080,ITP,WHOI,Araon,North
2014-08-16T19:59:31Z,1408219171,2014,19,59,228.833,228.833,77.3222,-146.343,-999.00,-999.00,-999.0,no,no,no,90080,ITP,WHOI,Araon,North
2014-08-16T21:00:00Z,1408222800,2014,21,0,228.875,228.875,77.3253,-146.349,-999.00,-999.00,-999.0,no,no,no,90080,ITP,WHOI,Araon,North
2014-08-16T22:00:28Z,1408226429,2014,22,0,228.917,228.917,77.3286,-146.355,-999.00,-999.00,-999.0,no,no,no,90080,ITP,WHOI,Araon,North
2014-08-16T22:59:31Z,1408229971,2014,22,59,228.958,228.958,77.3318,-146.3577,-999.00,-999.00,-999.0,no,no,no,90080,ITP,WHOI,Araon,North
2014-08-17T00:00:00Z,1408233600,2014,0,0,229.0,229.0,77.3347,-146.3583,-999.00,-999.00,-999.0,no,no,no,90080,ITP,WHOI,Araon,North
2014-08-17T01:00:28Z,1408237229,2014,1,0,229.042,229.042,77.3376,-146.3574,-999.00,-999.00,-999.0,no,no,no,90080,ITP,WHOI,Araon,North
2014-08-17T01:59:31Z,1408240771,2014,1,59,229.083,229.083,77.3404,-146.3562,-999.00,-999.00,-999.0,no,no,no,90080,ITP,WHOI,Araon,North
2014-08-17T03:00:00Z,1408244400,2014,3,0,229.125,229.125,77.3432,-146.3553,-999.00,-999.00,-999.0,no,no,no,90080,ITP,WHOI,Araon,North
2014-08-17T04:00:28Z,1408248029,2014,4,0,229.167,229.167,77.3459,-146.3554,-999.00,-999.00,-999.0,no,no,no,90080,ITP,WHOI,Araon,North
2014-08-17T04:59:31Z,1408251571,2014,4,59,229.208,229.208,77.3485,-146.3567,-999.00,-999.00,-999.0,no,no,no,90080,ITP,WHOI,Araon,North
2014-08-17T06:00:00Z,1408255200,2014,6,0,229.25,229.25,77.351,-146.3597,-999.00,-999.00,-999.0,no,no,no,90080,ITP,WHOI,Araon,North
2014-08-17T07:00:28Z,1408258829,2014,7,0,229.292,229.292,77.3536,-146.3653,-999.00,-999.00,-999.0,no,no,no,90080,ITP,WHOI,Araon,North
2014-08-17T07:59:31Z,1408262371,2014,7,59,229.333,229.333,77.3566,-146.3735,-999.00,-999.00,-999.0,no,no,no,90080,ITP,WHOI,Araon,North
2014-08-17T09:00:00Z,1408266000,2014,9,0,229.375,229.375,77.36,-146.3823,-999.00,-999.00,-999.0,no,no,no,90080,ITP,WHOI,Araon,North
2014-08-17T10:00:28Z,1408269629,2014,10,0,229.417,229.417,77.3637,-146.3906,-999.00,-999.00,-999.0,no,no,no,90080,ITP,WHOI,Araon,North
2014-08-17T10:59:31Z,1408273171,2014,10,59,229.458,229.458,77.3673,-146.3974,-999.00,-999.00,-999.0,no,no,no,90080,ITP,WHOI,Araon,North
2014-08-17T12:00:00Z,1408276800,2014,12,0,229.5,229.5,77.371,-146.402,-999.00,-999.00,-999.0,no,no,no,90080,ITP,WHOI,Araon,North
2014-08-17T13:00:28Z,1408280429,2014,13,0,229.542,229.542,77.3743,-146.4051,-999.00,-999.00,-999.0,no,no,no,90080,ITP,WHOI,Araon,North
2014-08-17T13:59:31Z,1408283971,2014,13,59,229.583,229.583,77.3772,-146.4065,-999.00,-999.00,-999.0,no,no,no,90080,ITP,WHOI,Araon,North
2014-08-17T15:00:00Z,1408287600,2014,15,0,229.625,229.625,77.3799,-146.4077,-999.00,-999.00,-999.0,no,no,no,90080,ITP,WHOI,Araon,North
2014-08-17T16:00:28Z,1408291229,2014,16,0,229.667,229.667,77.3822,-146.41,-999.00,-999.00,-999.0,no,no,no,90080,ITP,WHOI,Araon,North
2014-08-17T16:59:31Z,1408294771,2014,16,59,229.708,229.708,77.3846,-146.4149,-999.00,-999.00,-999.0,no,no,no,90080,ITP,WHOI,Araon,North
2014-08-17T18:00:00Z,1408298400,2014,18,0,229.75,229.75,77.3871,-146.4231,-999.00,-999.00,-999.0,no,no,no,90080,ITP,WHOI,Araon,North
2014-08-17T19:00:28Z,1408302029,2014,19,0,229.792,229.792,77.3905,-146.4352,-999.00,-999.00,-999.0,no,no,no,90080,ITP,WHOI,Araon,North
2014-08-17T19:59:31Z,1408305571,2014,19,59,229.833,229.833,77.3946,-146.4533,-999.00,-999.00,-999.0,no,no,no,90080,ITP,WHOI,Araon,North
2014-08-17T21:00:00Z,1408309200,2014,21,0,229.875,229.875,77.3996,-146.4657,-999.00,-999.00,-999.0,no,no,no,90080,ITP,WHOI,Araon,North
2014-08-17T22:00:28Z,1408312829,2014,22,0,229.917,229.917,77.405,-146.4783,-999.00,-999.00,-999.0,no,no,no,90080,ITP,WHOI,Araon,North
2014-08-17T22:59:31Z,1408316371,2014,22,59,229.958,229.958,77.4104,-146.487,-999.00,-999.00,-999.0,no,no,no,90080,ITP,WHOI,Araon,North
2014-08-18T00:00:00Z,1408320000,2014,0,0,230.0,230.0,77.4152,-146.4921,-999.00,-999.00,-999.0,no,no,no,90080,ITP,WHOI,Araon,North
2014-08-18T01:00:28Z,1408323629,2014,1,0,230.042,230.042,77.4192,-146.4955,-999.00,-999.00,-999.0,no,no,no,90080,ITP,WHOI,Araon,North
2014-08-18T01:59:31Z,1408327171,2014,1,59,230.083,230.083,77.4226,-146.5046,-999.00,-999.00,-999.0,no,no,no,90080,ITP,WHOI,Araon,North
2014-08-18T03:00:00Z,1408330800,2014,3,0,230.125,230.125,77.426,-146.5081,-999.00,-999.00,-999.0,no,no,no,90080,ITP,WHOI,Araon,North
2014-08-18T05:18:14Z,1408339094,2014,5,18,230.221,230.221,77.4325,-146.5331,-999.00,-999.00,-999.0,no,no,no,90080,ITP,WHOI,Araon,North
2014-08-18T06:00:00Z,1408341600,2014,6,0,230.25,230.25,77.444,-146.5417,-999.00,-999.00,-999.0,no,no,no,90080,ITP,WHOI,Araon,North
2014-08-18T07:00:28Z,1408345229,2014,7,0,230.292,230.292,77.4375,-146.5545,-999.00,-999.00,-999.0,no,no,no,90080,ITP,WHOI,Araon,North
2014-08-18T07:59:31Z,1408348771,2014,7,59,230.333,230.333,77.441,-146.5699,-999.00,-999.00,-999.0,no,no,no,90080,ITP,WHOI,Araon,North
2014-08-18T09:00:00Z,1408352400,2014,9,0,230.375,230.375,77.4446,-146.5786,-999.00,-999.00,-999.0,no,no,no,90080,ITP,WHOI,Araon,North
2014-08-18T10:00:28Z,1408356029,2014,10,0,230.417,230.417,77.4493,-146.5921,-999.00,-999.00,-999.0,no,no,no,90080,ITP,WHOI,Araon,North
2014-08-18T10:59:31Z,1408359571,2014,10,59,230.458,230.458,77.4548,-146.6059,-999.00,-999.00,-999.0,no,no,no,90080,ITP,WHOI,Araon,North
2014-08-18T12:00:00Z,1408363200,2014,12,0,230.5,230.5,77.4602,-146.6217,-999.00,-999.00,-999.0,no,no,no,90080,ITP,WHOI,Araon,North
2014-08-18T13:07:40Z,1408367261,2014,13,7,230.547,230.547,77.4662,-146.6266,-999.00,-999.00,-999.0,no,no,no,90080,ITP,WHOI,Araon,North
2014-08-18T13:59:31Z,1408370371,2014,13,59,230.583,230.583,77.4704,-146.6462,-999.00,-999.00,-999.0,no,no,no,90080,ITP,WHOI,Araon,North
2014-08-18T15:00:00Z,1408374000,2014,15,0,230.625,230.625,77.4747,-146.6423,-999.00,-999.00,-999.0,no,no,no,90080,ITP,WHOI,Araon,North
2014-08-18T16:00:28Z,1408377629,2014,16,0,230.667,230.667,77.4787,-146.6533,-999.00,-999.00,-999.0,no,no,no,90080,ITP,WHOI,Araon,North
2014-08-18T16:59:31Z,1408381171,2014,16,59,230.708,230.708,77.4827,-146.666,-999.00,-999.00,-999.0,no,no,no,90080,ITP,WHOI,Araon,North
2014-08-18T18:00:00Z,1408384800,2014,18,0,230.75,230.75,77.4868,-146.6804,-999.00,-999.00,-999.0,no,no,no,90080,ITP,WHOI,Araon,North
2014-08-18T19:00:28Z,1408388429,2014,19,0,230.792,230.792,77.4912,-146.6958,-999.00,-999.00,-999.0,no,no,no,90080,ITP,WHOI,Araon,North
2014-08-18T19:59:31Z,1408391971,2014,19,59,230.833,230.833,77.4959,-146.7107,-999.00,-999.00,-999.0,no,no,no,90080,ITP,WHOI,Araon,North
2014-08-18T21:00:00Z,1408395600,2014,21,0,230.875,230.875,77.5102,-146.7254,-999.00,-999.00,-999.0,no,no,no,90080,ITP,WHOI,Araon,North
2014-08-18T22:00:28Z,1408399229,2014,22,0,230.917,230.917,77.5065,-146.7392,-999.00,-999.00,-999.0,no,no,no,90080,ITP,WHOI,Araon,North
2014-08-18T22:59:31Z,1408402771,2014,22,59,230.958,230.958,77.5121,-146.7607,-999.00,-999.00,-999.0,no,no,no,90080,ITP,WHOI,Araon,North
2014-08-19T00:00:00Z,1408406400,2014,0,0,231.0,231.0,77.5265,-146.7604,-999.00,-999.00,-999.0,no,no,no,90080,ITP,WHOI,Araon,North
2014-08-19T01:00:28Z,1408410029,2014,1,0,231.042,231.042,77.523,-146.7772,-999.00,-999.00,-999.0,no,no,no,90080,ITP,WHOI,Araon,North
2014-08-19T01:59:31Z,1408413571,2014,1,59,231.083,231.083,77.5279,-146.7737,-999.00,-999.00,-999.0,no,no,no,90080,ITP,WHOI,Araon,North
2014-08-19T03:00:00Z,1408417200,2014,3,0,231.125,231.125,77.5324,-146.7795,-999.00,-999.00,-999.0,no,no,no,90080,ITP,WHOI,Araon,North
2014-08-19T04:00:28Z,1408420829,2014,4,0,231.167,231.167,77.5365,-146.7853,-999.00,-999.00,-999.0,no,no,no,90080,ITP,WHOI,Araon,North
2014-08-19T04:59:31Z,1408424371,2014,4,59,231.208,231.208,77.5402,-146.7923,-999.00,-999.00,-999.0,no,no,no,90080,ITP,WHOI,Araon,North
2014-08-19T06:00:00Z,1408428000,2014,6,0,231.25,231.25,77.544,-146.8018,-999.00,-999.00,-999.0,no,no,no,90080,ITP,WHOI,Araon,North
2014-08-19T07:00:28Z,1408431629,2014,7,0,231.292,231.292,77.5482,-146.8136,-999.00,-999.00,-999.0,no,no,no,90080,ITP,WHOI,Araon,North
2014-08-19T07:59:31Z,1408435171,2014,7,59,231.333,231.333,77.5531,-146.8263,-999.00,-999.00,-999.0,no,no,no,90080,ITP,WHOI,Araon,North
2014-08-19T09:00:00Z,1408438800,2014,9,0,231.375,231.375,77.5593,-146.837,-999.00,-999.00,-999.0,no,no,no,90080,ITP,WHOI,Araon,North
2014-08-19T10:00:28Z,1408442429,2014,10,0,231.417,231.417,77.5817,-146.8431,-999.00,-999.00,-999.0,no,no,no,90080,ITP,WHOI,Araon,North
2014-08-19T10:59:31Z,1408445971,2014,10,59,231.458,231.458,77.5741,-146.8437,-999.00,-999.00,-999.0,no,no,no,90080,ITP,WHOI,Araon,North
2014-08-19T12:00:00Z,1408449600,2014,12,0,231.5,231.5,77.581,-146.8391,-999.00,-999.00,-999.0,no,no,no,90080,ITP,WHOI,Araon,North
2014-08-19T13:00:28Z,1408453229,2014,13,0,231.542,231.542,77.5867,-146.8313,-999.00,-999.00,-999.0,no,no,no,90080,ITP,WHOI,Araon,North
2014-08-19T13:59:31Z,1408456771,2014,13,59,231.583,231.583,77.5914,-146.8217,-999.00,-999.00,-999.0,no,no,no,90080,ITP,WHOI,Araon,North
2014-08-19T15:00:00Z,1408460400,2014,15,0,231.625,231.625,77.5951,-146.8111,-999.00,-999.00,-999.0,no,no,no,90080,ITP,WHOI,Araon,North
2014-08-19T16:00:28Z,1408464029,2014,16,0,231.667,231.667,77.5979,-146.8027,-999.00,-999.00,-999.0,no,no,no,90080,ITP,WHOI,Araon,North
2014-08-19T16:59:31Z,1408467571,2014,16,59,231.708,231.708,77.6005,-146.7923,-999.00,-999.00,-999.0,no,no,no,90080,ITP,WHOI,Araon,North
2014-08-19T18:00:00Z,1408471200,2014,18,0,231.75,231.75,77.603,-146.782,-999.00,-999.00,-999.0,no,no,no,90080,ITP,WHOI,Araon,North
2014-08-19T19:00:28Z,1408474829,2014,19,0,231.792,231.792,77.6057,-146.7751,-999.00,-999.00,-999.0,no,no,no,90080,ITP,WHOI,Araon,North
2014-08-19T19:59:31Z,1408478371,2014,19,59,231.833,231.833,77.6087,-146.7798,-999.00,-999.00,-999.0,no,no,no,90080,ITP,WHOI,Araon,North
2014-08-19T21:00:00Z,1408482000,2014,21,0,231.875,231.875,77.6122,-146.7598,-999.00,-999.00,-999.0,no,no,no,90080,ITP,WHOI,Araon,North
2014-08-19T22:00:28Z,1408485629,2014,22,0,231.917,231.917,77.6158,-146.7482,-999.00,-999.00,-999.0,no,no,no,90080,ITP,WHOI,Araon,North
2014-08-19T22:59:31Z,1408489171,2014,22,59,231.958,231.958,77.6191,-146.7325,-999.00,-999.00,-999.0,no,no,no,90080,ITP,WHOI,Araon,North
2014-08-20T00:00:00Z,1408492800,2014,0,0,232.0,232.0,77.622,-146.713,-999.00,-999.00,-999.0,no,no,no,90080,ITP,WHOI,Araon,North
2014-08-20T01:00:28Z,1408496429,2014,1,0,232.042,232.042,77.6241,-146.6912,-999.00,-999.00,-999.0,no,no,no,90080,ITP,WHOI,Araon,North
2014-08-20T01:59:31Z,1408499971,2014,1,59,232.083,232.083,77.6251,-146.669,-999.00,-999.00,-999.0,no,no,no,90080,ITP,WHOI,Araon,North
2014-08-20T03:00:00Z,1408503600,2014,3,0,232.125,232.125,77.6253,-146.6471,-999.00,-999.00,-999.0,no,no,no,90080,ITP,WHOI,Araon,North
2014-08-20T05:18:14Z,1408511894,2014,5,18,232.221,232.221,77.6233,-146.6037,-999.00,-999.00,-999.0,no,no,no,90080,ITP,WHOI,Araon,North
2014-08-20T06:00:00Z,1408514400,2014,6,0,232.25,232.25,77.6225,-146.596,-999.00,-999.00,-999.0,no,no,no,90080,ITP,WHOI,Araon,North
2014-08-20T07:00:28Z,1408518029,2014,7,0,232.292,232.292,77.6215,-146.5814,-999.00,-999.00,-999.0,no,no,no,90080,ITP,WHOI,Araon,North
2014-08-20T07:59:31Z,1408521571,2014,7,59,232.333,232.333,77.6209,-146.5709,-999.00,-999.00,-999.0,no,no,no,90080,ITP,WHOI,Araon,North
2014-08-20T09:00:00Z,1408525200,2014,9,0,232.375,232.375,77.6206,-146.5609,-999.00,-999.00,-999.0,no,no,no,90080,ITP,WHOI,Araon,North
2014-08-20T10:00:28Z,1408528829,2014,10,0,232.417,232.417,77.6206,-146.5573,-999.00,-999.00,-999.0,no,no,no,90080,ITP,WHOI,Araon,North
2014-08-20T10:59:31Z,1408532371,2014,10,59,232.458,232.458,77.6208,-146.5373,-999.00,-999.00,-999.0,no,no,no,90080,ITP,WHOI,Araon,North